When you browse on this site, cookies collect data to enhance your experience and personalize the content and advertising you see.
Visit our Privacy Policy to learn more. By continuing to use the site, you agree to this use of cookies and data.
  • In Romania
  • List of Countries
  • For 7 days
  • Water Temperature
  • Weather Map
  • Weather Widgets
  • user-avatar
    Login

    Hourly Weather Warwick

    Today, 29 May, Friday

    Time Temperature Precipitation Wind Pressure Humidity
    00:00 +10°C° 0 mm 2 mps 767 mmHg 66%
    01:00 +9°C° 0 mm 2 mps 767 mmHg 67%
    02:00 +9°C° 0 mm 2 mps 767 mmHg 69%
    03:00 +8°C° 0 mm 2 mps 767 mmHg 70%
    04:00 +9°C° 0 mm 2 mps 767 mmHg 71%
    05:00 +9°C° 0 mm 2 mps 767 mmHg 71%
    06:00 +10°C° 0 mm 3 mps 767 mmHg 72%
    07:00 +12°C° 0 mm 3 mps 767 mmHg 69%
    08:00 +14°C° 0 mm 3 mps 766 mmHg 66%
    09:00 +17°C° 0 mm 3 mps 766 mmHg 62%
    10:00 +18°C° 0 mm 3 mps 766 mmHg 61%
    11:00 +19°C° 0 mm 3 mps 766 mmHg 59%
    12:00 +20°C° 0 mm 4 mps 766 mmHg 57%
    13:00 +20°C° 0 mm 4 mps 765 mmHg 59%
    14:00 +21°C° 0 mm 4 mps 765 mmHg 60%
    15:00 +21°C° 0 mm 4 mps 764 mmHg 61%
    16:00 +20°C° 0 mm 3 mps 764 mmHg 65%
    17:00 +20°C° 0 mm 3 mps 764 mmHg 69%
    18:00 +19°C° 0 mm 3 mps 764 mmHg 73%
    19:00 +17°C° 0 mm 3 mps 764 mmHg 77%
    20:00 +14°C° 0 mm 3 mps 764 mmHg 80%
    21:00 +12°C° 0 mm 3 mps 764 mmHg 84%
    22:00 +11°C° 0 mm 3 mps 764 mmHg 83%
    23:00 +10°C° 0 mm 3 mps 764 mmHg 83%

    Tomorrow, 30 May, Saturday

    Time Temperature Precipitation Wind Pressure Humidity
    00:00 +9°C° 0 mm 3 mps 764 mmHg 82%
    01:00 +8°C° 0 mm 3 mps 764 mmHg 82%
    02:00 +7°C° 0 mm 2 mps 764 mmHg 82%
    03:00 +6°C° 0 mm 2 mps 764 mmHg 82%
    04:00 +7°C° 0 mm 2 mps 764 mmHg 81%
    05:00 +8°C° 0 mm 2 mps 764 mmHg 80%
    06:00 +9°C° 0 mm 2 mps 764 mmHg 79%
    07:00 +11°C° 0 mm 3 mps 764 mmHg 77%
    08:00 +14°C° 0 mm 3 mps 764 mmHg 74%
    09:00 +17°C° 0 mm 3 mps 764 mmHg 72%
    10:00 +18°C° 0 mm 3 mps 763 mmHg 69%
    11:00 +19°C° 0 mm 4 mps 763 mmHg 66%
    12:00 +21°C° 0 mm 4 mps 763 mmHg 64%
    13:00 +21°C° 0 mm 4 mps 763 mmHg 64%
    14:00 +21°C° 0 mm 4 mps 763 mmHg 64%
    15:00 +21°C° 0 mm 4 mps 762 mmHg 64%
    16:00 +21°C° 0 mm 4 mps 762 mmHg 67%
    17:00 +20°C° 0 mm 4 mps 762 mmHg 71%
    18:00 +19°C° 0 mm 4 mps 762 mmHg 74%
    19:00 +18°C° 0 mm 3 mps 762 mmHg 78%
    20:00 +16°C° 0 mm 3 mps 763 mmHg 83%
    21:00 +13°C° 0 mm 3 mps 763 mmHg 88%
    22:00 +12°C° 0 mm 3 mps 763 mmHg 89%
    23:00 +11°C° 0 mm 3 mps 763 mmHg 90%

    Day after tomorrow, 31 May, Sunday

    Time Temperature Precipitation Wind Pressure Humidity
    00:00 +10°C° 0 mm 3 mps 763 mmHg 91%
    01:00 +9°C° 0 mm 3 mps 763 mmHg 92%
    02:00 +9°C° 0 mm 3 mps 763 mmHg 92%
    03:00 +8°C° 0 mm 3 mps 764 mmHg 92%
    04:00 +9°C° 0 mm 3 mps 764 mmHg 91%
    05:00 +10°C° 0 mm 3 mps 764 mmHg 89%
    06:00 +11°C° 0 mm 4 mps 764 mmHg 87%
    07:00 +13°C° 0 mm 4 mps 764 mmHg 82%
    08:00 +15°C° 0 mm 4 mps 764 mmHg 76%
    09:00 +18°C° 0 mm 4 mps 764 mmHg 70%
    10:00 +19°C° 0 mm 4 mps 764 mmHg 66%
    11:00 +20°C° 0 mm 5 mps 764 mmHg 63%
    12:00 +21°C° 0 mm 5 mps 764 mmHg 59%
    13:00 +21°C° 0 mm 5 mps 764 mmHg 59%
    14:00 +21°C° 0 mm 5 mps 764 mmHg 60%
    15:00 +21°C° 0 mm 4 mps 764 mmHg 60%
    16:00 +21°C° 0.1 mm 4 mps 764 mmHg 66%
    17:00 +20°C° 0.1 mm 4 mps 764 mmHg 71%
    18:00 +19°C° 0.1 mm 4 mps 764 mmHg 77%
    19:00 +17°C° 0 mm 4 mps 764 mmHg 81%
    20:00 +15°C° 0 mm 4 mps 764 mmHg 84%
    21:00 +13°C° 0 mm 4 mps 764 mmHg 88%
    22:00 +12°C° 0 mm 3 mps 765 mmHg 89%
    23:00 +11°C° 0 mm 3 mps 765 mmHg 91%

    1 June, Monday

    Time Temperature Precipitation Wind Pressure Humidity
    00:00 +10°C° 0 mm 3 mps 765 mmHg 92%
    01:00 +9°C° 0 mm 3 mps 765 mmHg 92%
    02:00 +9°C° 0 mm 2 mps 764 mmHg 91%
    03:00 +8°C° 0 mm 2 mps 764 mmHg 91%
    04:00 +9°C° 0 mm 3 mps 764 mmHg 90%
    05:00 +10°C° 0 mm 3 mps 764 mmHg 88%
    06:00 +11°C° 0 mm 3 mps 764 mmHg 86%
    07:00 +12°C° 0 mm 4 mps 764 mmHg 82%
    08:00 +14°C° 0 mm 4 mps 764 mmHg 77%
    09:00 +17°C° 0 mm 4 mps 764 mmHg 72%
    10:00 +18°C° 0 mm 4 mps 764 mmHg 70%
    11:00 +19°C° 0 mm 4 mps 764 mmHg 68%
    12:00 +20°C° 0 mm 4 mps 764 mmHg 66%
    13:00 +20°C° 0.1 mm 4 mps 764 mmHg 66%
    14:00 +20°C° 0.1 mm 4 mps 764 mmHg 66%
    15:00 +20°C° 0.1 mm 4 mps 763 mmHg 66%
    16:00 +20°C° 0 mm 4 mps 763 mmHg 67%
    17:00 +19°C° 0 mm 4 mps 763 mmHg 69%
    18:00 +18°C° 0 mm 4 mps 763 mmHg 70%
    19:00 +15°C° 0 mm 4 mps 763 mmHg 73%
    20:00 +13°C° 0 mm 4 mps 764 mmHg 77%
    21:00 +11°C° 0 mm 3 mps 764 mmHg 80%
    22:00 +11°C° 0 mm 3 mps 764 mmHg 83%
    23:00 +10°C° 0 mm 3 mps 764 mmHg 87%

    2 June, Tuesday

    Time Temperature Precipitation Wind Pressure Humidity
    00:00 +9°C° 0 mm 3 mps 763 mmHg 90%
    01:00 +9°C° 0 mm 3 mps 763 mmHg 91%
    02:00 +9°C° 0 mm 3 mps 763 mmHg 92%
    03:00 +8°C° 0 mm 2 mps 763 mmHg 93%
    04:00 +9°C° 0 mm 3 mps 763 mmHg 91%
    05:00 +10°C° 0 mm 3 mps 762 mmHg 89%
    06:00 +11°C° 0 mm 3 mps 762 mmHg 87%
    07:00 +13°C° 0 mm 4 mps 762 mmHg 81%
    08:00 +14°C° 0 mm 4 mps 762 mmHg 75%
    09:00 +17°C° 0 mm 4 mps 762 mmHg 68%
    10:00 +18°C° 0 mm 4 mps 762 mmHg 66%
    11:00 +19°C° 0 mm 4 mps 761 mmHg 64%
    12:00 +20°C° 0 mm 4 mps 761 mmHg 61%
    13:00 +20°C° 0 mm 4 mps 760 mmHg 61%
    14:00 +20°C° 0 mm 4 mps 760 mmHg 61%
    15:00 +20°C° 0 mm 4 mps 760 mmHg 61%
    16:00 +20°C° 0 mm 4 mps 759 mmHg 65%
    17:00 +19°C° 0 mm 3 mps 759 mmHg 68%
    18:00 +19°C° 0 mm 3 mps 759 mmHg 71%
    19:00 +17°C° 0 mm 3 mps 759 mmHg 76%
    20:00 +15°C° 0 mm 2 mps 759 mmHg 81%
    21:00 +13°C° 0 mm 2 mps 759 mmHg 85%
    22:00 +12°C° 0 mm 2 mps 759 mmHg 86%
    23:00 +10°C° 0 mm 2 mps 758 mmHg 86%

    3 June, Wednesday

    Time Temperature Precipitation Wind Pressure Humidity
    00:00 +10°C° 0 mm 2 mps 758 mmHg 87%
    01:00 +9°C° 0 mm 2 mps 758 mmHg 87%
    02:00 +9°C° 0 mm 2 mps 758 mmHg 88%
    03:00 +8°C° 0 mm 2 mps 757 mmHg 89%
    04:00 +9°C° 0 mm 3 mps 757 mmHg 87%
    05:00 +10°C° 0 mm 3 mps 757 mmHg 85%
    06:00 +11°C° 0 mm 4 mps 757 mmHg 84%
    07:00 +12°C° 0 mm 4 mps 757 mmHg 79%
    08:00 +14°C° 0 mm 4 mps 757 mmHg 74%
    09:00 +15°C° 0 mm 5 mps 757 mmHg 69%
    10:00 +16°C° 0 mm 5 mps 756 mmHg 67%
    11:00 +17°C° 0 mm 5 mps 756 mmHg 64%
    12:00 +19°C° 0 mm 5 mps 756 mmHg 61%
    13:00 +19°C° 0 mm 5 mps 756 mmHg 60%
    14:00 +19°C° 0 mm 5 mps 756 mmHg 60%
    15:00 +20°C° 0 mm 5 mps 755 mmHg 60%
    16:00 +19°C° 0 mm 4 mps 755 mmHg 63%
    17:00 +18°C° 0 mm 4 mps 755 mmHg 67%
    18:00 +18°C° 0 mm 4 mps 755 mmHg 71%
    19:00 +16°C° 0 mm 3 mps 755 mmHg 78%
    20:00 +13°C° 0 mm 3 mps 755 mmHg 84%
    21:00 +12°C° 0 mm 2 mps 755 mmHg 91%
    22:00 +10°C° 0 mm 2 mps 755 mmHg 92%
    23:00 +10°C° 0 mm 1 mps 755 mmHg 93%
    Show more